Regional Weather Roundup
Issued by NWS Charleston, SC

Current Version | Previous Version | Text Only | Print | Product List | Glossary Off
Versions: 1 2 3 4 5 6 7 8 9 10 11 12 13 14 15 16 17 18 19 20 21 22 23 24 25 26 27 28 29 30 31 32 33 34 35 36 37 38 39 40 41 42 43 44 45 46 47 48 49 50

000
ASUS42 KCHS 152225
RWRCHS

REGIONAL WEATHER ROUNDUP
NATIONAL WEATHER SERVICE CHARLESTON SC
600 PM EDT TUE APR 15 2014

NOTE: "FAIR" INDICATES FEW OR NO CLOUDS BELOW 12,000 FEET WITH NO
SIGNIFICANT WEATHER AND/OR OBSTRUCTIONS TO VISIBILITY.

NOT ALL STATIONS ARE QUALITY CONTROLLED BY THE NATIONAL
WEATHER SERVICE. USE DATA WITH CAUTION...ESPECIALLY
DEWPOINT OBSERVATIONS.

SCZ027-030-031-034>040-042>050-152300-
...SOUTH CAROLINA...

CITY           SKY/WX    TMP DP  RH WIND       PRES   REMARKS
N CHARLESTON   CLOUDY    73  65  75 SW18G25   29.68R
WATERFRONT PRK   N/A     72 N/A N/A SW15G22     N/A
FORT JOHNSON     N/A     70  66  88 SW9G16    29.72F
MOUNT PLEASANT FAIR     N/A N/A N/A SW15G23   29.68R
JOHNS ISLAND   CLOUDY    70  68  94 SW15      29.70R
PINOPOLIS        N/A     73  64  73 SW9G20    29.58R
MONCKS CORNER  CLOUDY    73  68  83 SW17      29.67R
SUMMERVILLE    CLOUDY    72  66  83 S6        29.66S
BEAUFORT MCAS  LGT RAIN  67  64  90 NW20G30   29.72R FOG
BEAUFORT ARPT  HVY RAIN  70  70 100 SW10G16   29.70R
HILTON HEAD IS CLOUDY    70  70 100 S9        29.70R
GEORGETOWN     NOT AVBL
WALTERBORO     CLOUDY    66 N/A N/A W13G20    29.70R
ORANGEBURG     PTSUNNY   68  61  78 W8        29.68R
BARNWELL       MOCLDY    68  55  64 W14G23    29.72R
AIKEN          FAIR      64  55  72 W18G24    29.76R
MANNING        CLOUDY    72  72 100 W14G21    29.67R
KINGSTREE      NOT AVBL
COLUMBIA       PTSUNNY   70  61  73 NW10      29.66R
SUMTER         CLOUDY    67  65  91 W10       29.65R
FLORENCE       RAIN      70  65  84 W17G23    29.66R
MYRTLE BEACH   MOSUNNY   68  64  88 S17       29.67S
N MYRTLE BEACH CLOUDY    68  64  87 S17G28    29.67F

$$

GAZ063-065-086>088-099>101-113>116-118-119-134-136>141-150-152300-
...GEORGIA...

CITY           SKY/WX    TMP DP  RH WIND       PRES   REMARKS
SAVANNAH ARPT  CLOUDY    64  61  88 W10       29.73R
HUNTER AAF     CLOUDY    64  61  88 W13       29.71R
FORT STEWART   PTSUNNY   64  63  94 W18G24    29.74R
STATESBORO     NOT AVBL
SYLVANIA       CLOUDY    65  55  70 NW21G30   29.76R
CLAXTON        CLOUDY    61  57  88 W16G26    29.80R
THOMSON        MOSUNNY   58  48  69 W15G22    29.84R
AUGUSTA-BUSH   CLOUDY    64  51  62 W20       29.74R
AUGUSTA-DANIEL PTSUNNY   63  51  65 W14G23    29.76R
SWAINSBORO     MOCLDY    59  50  72 W17G24    29.82R
VIDALIA        CLOUDY    57  50  77 W13G21    29.83R
ALMA           CLOUDY    58  48  69 W21G31    29.83R
WAYCROSS       NOT AVBL
JESUP          CLOUDY    61  57  88 NW20G29   29.80R
BRUNSWICK      CLOUDY    64  61  88 W12G21    29.78R
SAINT SIMONS   CLOUDY    66  62  87 W13G21    29.76R

$$

SCZ027-028-034-036>038-045-046-048>050-GAZ119-141-152300-
...LAKE AND SUPPLEMENTAL COASTAL OBSERVATIONS...

STATION/POSITION TIME  TEMP    WIND        PRES    WAVE   SWELL
                       AIR SEA DIR/SP/G            HT/PER HT/PER/DIR
                 (UTC) (F)     (DEG/KT/KT) (MB)    (FT/S) (FT/S/D)
UPR LAKE MARION  NOT AVBL
WINYAH BAY       2200   70     210/ 14     1005.0S
LAKE MURRAY      2100   65      10/  6/ 15 1004.1R
ACE BASIN NERRS  2200   71     190/  3     1005.0S
FORT PULASKI     2200   69 62  220/  7/ 12 1006.2R
SAPELO ISLAND    2200   67     290/ 17     1007.0R

$$

ANZ086-088-AMZ330-350-352-354-374-454-470-152300-
...C-MAN AND BUOY OBSERVATIONS...

STATION/POSITION TIME  TEMP    WIND        PRES    WAVE   SWELL
                       AIR SEA DIR/SP/G            HT/PER HT/PER/DIR
                 (UTC) (F)     (DEG/KT/KT) (MB)    (FT/S) (FT/S/D)
FOLLY BEACH CMAN 2200   68     200/ 18/ 21 1005.5F
BUOY 41004       NOT AVBL
BUOY 41008       2200   69 67  210/ 12/ 17 1005.8R   4/ 8   3/100/ 8
5E ST. MARYS GA  2200      69                N/A     5/ 8
FRYING PAN BUOY  2200   69 66  180/ 19/ 21 1006.0F   7/ 8   3/190/14
BUOY 41025       NOT AVBL
CAPE LOOKOUT NC  2200   65     170/ 18/ 20 1005.7F
BUOY 41002       NOT AVBL
BUOY 41010       2200   76 76  190/ 12/ 14 1011.6R   5/ 8   3/ 90/ 8
BUOY 41012       NOT AVBL
ST AUGUSTINE FL  2200   76     210/ 11/ 15 1008.0F


$$



USA.gov is the U.S. government's official web portal to all federal, state and local government web resources and services.